| time (UTC) | temp F | wind direction | speed MPH | gust MPH | rain 1hr in | rain 24hr in | rain mn in | humidity % | barometer mb |
| 20260504174038 | 77 | 221 | 6.0 | 13.0 | 0.00 | 0.00 | 0.00 | 56 | 1011.4 |
| 20260504173018 | 77 | 223 | 7.0 | 14.0 | 0.00 | 0.00 | 0.00 | 57 | 1011.4 |
| 20260504172018 | 76 | 222 | 7.0 | 11.0 | 0.00 | 0.00 | 0.00 | 57 | 1011.6 |
| 20260504171015 | 76 | 222 | 7.0 | 14.0 | 0.00 | 0.00 | 0.00 | 57 | 1011.8 |
| 20260504151017 | 71 | 209 | 5.0 | 13.0 | 0.00 | 0.00 | 0.00 | 63 | 1013.0 |
| 20260504141015 | 68 | 212 | 4.0 | 9.0 | 0.00 | 0.00 | 0.00 | 68 | 1013.3 |
| 20260504081036 | 63 | 210 | 3.0 | 9.0 | 0.00 | 0.00 | 0.00 | 68 | 1014.2 |
| 20260504050016 | 66 | 214 | 1.0 | 3.0 | 0.00 | 0.00 | 0.00 | 59 | 1016.1 |
| 20260504045036 | 66 | 217 | 1.0 | 4.0 | 0.00 | 0.00 | 0.00 | 58 | 1016.1 |
| 20260504044017 | 67 | 213 | 1.0 | 6.0 | 0.00 | 0.00 | 0.00 | 57 | 1016.2 |
| 20260504043017 | 67 | 206 | 1.0 | 7.0 | 0.00 | 0.00 | 0.00 | 56 | 1016.2 |
| 20260504042037 | 68 | 216 | 1.0 | 5.0 | 0.00 | 0.00 | 0.00 | 54 | 1016.3 |
| 20260504041017 | 68 | 217 | 2.0 | 8.0 | 0.00 | 0.00 | 0.00 | 53 | 1016.4 |
| 20260504040017 | 69 | 208 | 2.0 | 7.0 | 0.00 | 0.00 | 0.00 | 52 | 1016.3 |
| 20260504035018 | 69 | 208 | 1.0 | 6.0 | 0.00 | 0.00 | 0.00 | 52 | 1016.3 |
| 20260504034018 | 69 | 214 | 2.0 | 5.0 | 0.00 | 0.00 | 0.00 | 51 | 1016.2 |
| 20260504033018 | 69 | 216 | 3.0 | 7.0 | 0.00 | 0.00 | 0.00 | 51 | 1016.2 |
| 20260504032018 | 69 | 212 | 2.0 | 7.0 | 0.00 | 0.00 | 0.00 | 51 | 1016.2 |
| 20260504031016 | 70 | 206 | 2.0 | 5.0 | 0.00 | 0.00 | 0.00 | 51 | 1016.2 |
| 20260504030016 | 70 | 215 | 2.0 | 5.0 | 0.00 | 0.00 | 0.00 | 51 | 1016.1 |
| 20260504025016 | 70 | 206 | 2.0 | 5.0 | 0.00 | 0.00 | 0.00 | 50 | 1016.1 |
| 20260504024016 | 70 | 210 | 2.0 | 6.0 | 0.00 | 0.00 | 0.00 | 49 | 1016.0 |
| 20260504023016 | 71 | 210 | 1.0 | 5.0 | 0.00 | 0.00 | 0.00 | 48 | 1016.0 |
| 20260504022017 | 71 | 215 | 1.0 | 4.0 | 0.00 | 0.00 | 0.00 | 46 | 1016.0 |
| 20260504021016 | 72 | 207 | 2.0 | 6.0 | 0.00 | 0.00 | 0.00 | 45 | 1016.0 |
| 20260504020017 | 73 | 223 | 3.0 | 5.0 | 0.00 | 0.00 | 0.00 | 44 | 1016.0 |
| 20260504015037 | 73 | 223 | 3.0 | 5.0 | 0.00 | 0.00 | 0.00 | 42 | 1015.9 |
| 20260504014037 | 74 | 221 | 3.0 | 6.0 | 0.00 | 0.00 | 0.00 | 41 | 1015.8 |
| 20260504013017 | 74 | 222 | 3.0 | 7.0 | 0.00 | 0.00 | 0.00 | 40 | 1015.6 |
| 20260504012017 | 75 | 173 | 4.0 | 7.0 | 0.00 | 0.00 | 0.00 | 40 | 1015.6 |
| 20260504011018 | 75 | 221 | 3.0 | 8.0 | 0.00 | 0.00 | 0.00 | 39 | 1015.6 |
| 20260504010038 | 76 | 219 | 4.0 | 8.0 | 0.00 | 0.00 | 0.00 | 38 | 1015.6 |
| 20260504005016 | 76 | 219 | 4.0 | 11.0 | 0.00 | 0.00 | 0.00 | 37 | 1015.6 |
| 20260504004036 | 77 | 220 | 2.0 | 6.0 | 0.00 | 0.00 | 0.00 | 37 | 1015.6 |
| 20260504003015 | 78 | 223 | 3.0 | 8.0 | 0.00 | 0.00 | 0.00 | 35 | 1015.6 |
| 20260504002016 | 79 | 221 | 3.0 | 8.0 | 0.00 | 0.00 | 0.00 | 34 | 1015.7 |
| 20260504001017 | 79 | 213 | 3.0 | 7.0 | 0.00 | 0.00 | 0.00 | 33 | 1015.8 |
| 20260504000016 | 80 | 222 | 4.0 | 8.0 | 0.00 | 0.00 | 0.00 | 33 | 1015.7 |
| 20260503235036 | 80 | 218 | 3.0 | 8.0 | 0.00 | 0.00 | 0.00 | 32 | 1015.7 |
| 20260503234016 | 81 | 220 | 4.0 | 7.0 | 0.00 | 0.00 | 0.00 | 32 | 1015.8 |
| 20260503233016 | 81 | 216 | 5.0 | 9.0 | 0.00 | 0.00 | 0.00 | 31 | 1015.9 |
| 20260503232016 | 81 | 209 | 5.0 | 13.0 | 0.00 | 0.00 | 0.00 | 30 | 1016.0 |
| 20260503231016 | 81 | 208 | 4.0 | 9.0 | 0.00 | 0.00 | 0.00 | 30 | 1016.0 |
| 20260503230017 | 81 | 196 | 4.0 | 9.0 | 0.00 | 0.00 | 0.00 | 31 | 1016.1 |
| 20260503225016 | 82 | 218 | 5.0 | 12.0 | 0.00 | 0.00 | 0.00 | 30 | 1016.2 |
| 20260503224017 | 82 | 213 | 6.0 | 12.0 | 0.00 | 0.00 | 0.00 | 30 | 1016.1 |
| 20260503223017 | 82 | 223 | 4.0 | 11.0 | 0.00 | 0.00 | 0.00 | 30 | 1016.1 |
| 20260503222017 | 82 | 211 | 5.0 | 16.0 | 0.00 | 0.00 | 0.00 | 29 | 1016.3 |
| 20260503221017 | 82 | 208 | 3.0 | 9.0 | 0.00 | 0.00 | 0.00 | 29 | 1016.4 |
| 20260503220018 | 82 | 233 | 5.0 | 11.0 | 0.00 | 0.00 | 0.00 | 29 | 1016.6 |
| 20260503215018 | 82 | 227 | 5.0 | 13.0 | 0.00 | 0.00 | 0.00 | 29 | 1016.7 |
| 20260503214018 | 82 | 218 | 3.0 | 7.0 | 0.00 | 0.00 | 0.00 | 30 | 1016.8 |
| 20260503213015 | 82 | 223 | 4.0 | 8.0 | 0.00 | 0.00 | 0.00 | 29 | 1016.9 |
| 20260503212015 | 82 | 232 | 5.0 | 11.0 | 0.00 | 0.00 | 0.00 | 29 | 1017.1 |
| 20260503211035 | 82 | 224 | 4.0 | 9.0 | 0.00 | 0.00 | 0.00 | 29 | 1017.2 |
| 20260503210016 | 82 | 221 | 5.0 | 8.0 | 0.00 | 0.00 | 0.00 | 29 | 1017.5 |
| 20260503205016 | 83 | 219 | 4.0 | 8.0 | 0.00 | 0.00 | 0.00 | 29 | 1017.6 |
| 20260503204016 | 82 | 220 | 5.0 | 9.0 | 0.00 | 0.00 | 0.00 | 30 | 1017.8 |
| 20260503203016 | 82 | 220 | 5.0 | 9.0 | 0.00 | 0.00 | 0.00 | 30 | 1018.0 |
| 20260503202017 | 82 | 220 | 6.0 | 11.0 | 0.00 | 0.00 | 0.00 | 29 | 1018.2 |
| 20260503201017 | 82 | 223 | 4.0 | 16.0 | 0.00 | 0.00 | 0.00 | 29 | 1018.3 |
| 20260503200017 | 82 | 219 | 6.0 | 10.0 | 0.00 | 0.00 | 0.00 | 29 | 1018.3 |
| 20260503195037 | 82 | 223 | 6.0 | 9.0 | 0.00 | 0.00 | 0.00 | 29 | 1018.6 |
| 20260503194017 | 82 | 222 | 6.0 | 11.0 | 0.00 | 0.00 | 0.00 | 29 | 1018.7 |
| 20260503193017 | 82 | 221 | 3.0 | 6.0 | 0.00 | 0.00 | 0.00 | 29 | 1018.8 |
| 20260503192018 | 82 | 222 | 5.0 | 8.0 | 0.00 | 0.00 | 0.00 | 30 | 1019.1 |
| 20260503191018 | 82 | 222 | 5.0 | 8.0 | 0.00 | 0.00 | 0.00 | 31 | 1019.3 |
| 20260503190018 | 82 | 226 | 4.0 | 8.0 | 0.00 | 0.00 | 0.00 | 32 | 1019.4 |
| 20260503185018 | 81 | 219 | 6.0 | 10.0 | 0.00 | 0.00 | 0.00 | 32 | 1019.5 |
| 20260503184018 | 81 | 221 | 5.0 | 9.0 | 0.00 | 0.00 | 0.00 | 33 | 1019.6 |
| 20260503183015 | 80 | 221 | 6.0 | 10.0 | 0.00 | 0.00 | 0.00 | 32 | 1019.7 |
| 20260503182015 | 80 | 223 | 6.0 | 10.0 | 0.00 | 0.00 | 0.00 | 35 | 1020.0 |
| 20260503181136 | 80 | 224 | 5.0 | 9.0 | 0.00 | 0.00 | 0.00 | 34 | 1020.2 |
| 20260503180016 | 79 | 219 | 5.0 | 10.0 | 0.00 | 0.00 | 0.00 | 35 | 1020.3 |
| 20260503175016 | 79 | 219 | 6.0 | 12.0 | 0.00 | 0.00 | 0.00 | 37 | 1020.6 |